Location: Makanda
(37.6176°N, 89.2090°W)
Time: 14:26:17
(UTC+00:00)

COSMOS 2428 - Pass Details

Date: 23 September 2019
Orbit: 845 x 856 km, 70.9° (Epoch: 19 October)

Event Time Altitude Azimuth Distance (km) Brightness Sun altitude
Rises 00:40:08 0° 335° (NNW) 3,412 6.4 -9.9°
Reaches altitude 10° 00:42:35 10° 333° (NNW) 2,473 5.6 -10.4°
Maximum altitude 00:48:14 69° 251° (WSW) 902 3.1 -11.5°
Drops below altitude 10° 00:53:50 10° 169° (SSE) 2,463 4.9 -12.6°
Sets 00:56:17 0° 167° (SSE) 3,397 5.6 -13.1°
